Beaufort, NC

2:51 PM EDT on August 18, 2017 (GMT -0400)
Smith

Weather History for KMRH - November, 2013

Change the Weather History Date:

Tuesday, November 19, 2013

  Actual Average Record
Temperature  
Mean Temperature 51 °F -  
Max Temperature 57 °F 66 °F 80 °F (1985)
Min Temperature 45 °F 44 °F 26 °F (2014)
Degree Days  
Heating Degree Days 14    
Growing Degree Days 1 (Base 50)    
Moisture  
Dew Point 35 °F    
Average Humidity 54    
Maximum Humidity 74    
Minimum Humidity 34    
Precipitation  
Precipitation 0.00 in - - ()
Sea Level Pressure  
Sea Level Pressure 30.09 in    
Wind  
Wind Speed 12 mph (NNE)    
Max Wind Speed 21 mph    
Max Gust Speed 31 mph    
Visibility 10 miles    
Events      
Averages and records for this station are not official NWS values.
T = Trace of Precipitation, MM = Missing Value Source: NWS Daily Summary

Daily Weather History Graph

Daily Weather History Graph

Search for Another Location

Airport or City:

Trip Planner

Search our weather history database for the weather conditions in past years. The results will help you decide how hot, cold, wet, or windy it might be!

Date:

Astronomy

Nov. 19, 2013 Rise Set
Actual Time 6:44 AM EST 4:59 PM EST
Civil Twilight 6:17 AM EST 5:26 PM EST
Nautical Twilight 5:46 AM EST 5:56 PM EST
Astronomical Twilight 5:16 AM EST 6:27 PM EST
Moon 6:49 PM EST (11/19) 8:21 AM EST (11/19)
Length of Visible Light 11h 08m
Length of Day
10h 14m
Waning Gibbous, 96% of the Moon is Illuminated
Nov 19
Waning Gibbous
Nov 25
Last Quarter
Dec 2
New
Dec 9
First Quarter
Dec 17
Full

Hourly Weather History & Observations

Time (EST) Temp. Windchill Dew Point Humidity Pressure Visibility Wind Dir Wind Speed Gust Speed Precip Events Conditions
12:58 AM 57.9 °F - 41.0 °F 53% 29.90 in 10.0 mi North 11.5 mph 19.6 mph N/A   Clear
1:58 AM 55.9 °F - 37.9 °F 51% 29.91 in 10.0 mi North 10.4 mph - N/A   Clear
2:58 AM 54.0 °F - 36.0 °F 51% 29.93 in 10.0 mi North 11.5 mph - N/A   Clear
3:58 AM 53.1 °F - 35.1 °F 50% 29.95 in 10.0 mi North 12.7 mph - N/A   Clear
4:58 AM 51.1 °F - 33.1 °F 50% 29.97 in 10.0 mi North 11.5 mph - N/A   Clear
5:58 AM 50.0 °F - 32.0 °F 50% 30.00 in 10.0 mi North 11.5 mph - N/A   Clear
6:58 AM 48.0 °F - 33.1 °F 56% 30.04 in 10.0 mi North 9.2 mph - N/A   Clear
7:58 AM 51.1 °F - 34.0 °F 52% 30.06 in 10.0 mi North 12.7 mph - N/A   Clear
8:58 AM 54.0 °F - 33.1 °F 45% 30.08 in 10.0 mi North 19.6 mph 31.1 mph N/A   Clear
9:58 AM 55.9 °F - 33.1 °F 42% 30.09 in 10.0 mi North 20.7 mph 28.8 mph N/A   Clear
10:58 AM 57.0 °F - 33.1 °F 40% 30.10 in 10.0 mi North 12.7 mph 25.3 mph N/A   Clear
11:58 AM 57.0 °F - 32.0 °F 39% 30.10 in 10.0 mi NNE 18.4 mph 26.5 mph N/A   Clear
12:58 PM 57.0 °F - 28.9 °F 34% 30.10 in 10.0 mi North 16.1 mph 27.6 mph N/A   Clear
1:58 PM 57.0 °F - 32.0 °F 39% 30.10 in 10.0 mi NNE 15.0 mph - N/A   Clear
2:58 PM 55.9 °F - 33.1 °F 42% 30.10 in 10.0 mi North 12.7 mph 21.9 mph N/A   Clear
3:58 PM 54.0 °F - 37.0 °F 53% 30.12 in 10.0 mi NE 12.7 mph - N/A   Scattered Clouds
4:58 PM 50.0 °F - 36.0 °F 59% 30.14 in 10.0 mi NE 8.1 mph - N/A   Clear
5:58 PM 48.0 °F - 37.0 °F 66% 30.18 in 10.0 mi NNE 6.9 mph - N/A   Clear
6:58 PM 46.9 °F - 37.0 °F 68% 30.20 in 10.0 mi NE 6.9 mph - N/A   Clear
7:58 PM 45.0 °F 41.2 °F 37.0 °F 74% 30.22 in 10.0 mi NNE 6.9 mph - N/A   Clear
8:58 PM 45.0 °F 40.1 °F 37.0 °F 74% 30.23 in 10.0 mi NNE 9.2 mph - N/A   Clear
9:58 PM 46.9 °F - 36.0 °F 66% 30.23 in 10.0 mi NNE 10.4 mph 17.3 mph N/A   Clear
10:58 PM 48.0 °F - 37.0 °F 66% 30.26 in 10.0 mi NNE 10.4 mph - N/A   Overcast
11:58 PM 45.0 °F 41.2 °F 37.0 °F 74% 30.26 in 10.0 mi NNE 6.9 mph - N/A   Clear